Regional Weather Roundup
Issued by NWS

Home | Current Version | Previous Version | Text Only | Print | Product List | Glossary On
Versions: 1 2 3 4 5 6 7 8 9 10 11 12 13 14 15 16 17 18 19 20 21 22 23 24 25 26 27 28 29 30 31 32 33 34 35 36 37 38 39 40 41 42 43 44 45 46 47 48 49 50
000
ASUS46 KSEW 290310
RWRWA

WASHINGTON REGIONAL WEATHER ROUNDUP
NATIONAL WEATHER SERVICE SEATTLE WA
800 PM PDT MON JUL 28 2014

NOTE:"FAIR" INDICATES FEW OR NO CLOUDS BELOW 12,000 FEET WITH NO
SIGNIFICANT WEATHER AND/OR OBSTRUCTIONS TO VISIBILITY.

WAZ505-507>509-290400-
SEATTLE, TACOMA, EVERETT, AND VICINITY

CITY           SKY/WX    TMP DP  RH WIND       PRES   REMARKS
EVERETT        CLEAR     70  53  54 N8        30.09S
BOEING FIELD   CLEAR     82  52  35 NW7       30.04F
RENTON         CLEAR     82  58  43 NW9       30.04S
SEATAC AIRPORT CLEAR     83  54  37 N8        30.07S
JBLM-MCCHORD   CLEAR     82  49  31 NE6       30.06S
PUYALLUP       FAIR      79  54  41 CALM      30.07S
JBLM-FT LEWIS  CLEAR     84  49  29 N6        30.05S
TACOMA NARROWS CLEAR     82  49  31 N8        30.06S
$$

WAZ001-503-506-510-514-515-290400-
NORTH INTERIOR

CITY           SKY/WX    TMP DP  RH WIND       PRES   REMARKS
BELLINGHAM     CLEAR     73  58  59 S5        30.05S
FRIDAY HARBOR  CLEAR     67  50  54 CALM      30.07S
EASTSOUND      CLEAR     73  54  49 CALM      30.04S
PORT ANGELES   CLEAR     67  52  58 W10       30.10S
NAS WHIDBEY    PTCLDY    60  52  74 SW6       30.09S
BURLINGTON     CLEAR     72  54  53 SW6       30.08S
$$

WAZ020-022-039-040-504-511-512-290400-
SOUTHWEST INTERIOR

CITY           SKY/WX    TMP DP  RH WIND       PRES   REMARKS
SHELTON        CLEAR     83  53  35 SW8       30.04R
OLYMPIA        CLEAR     84  47  27 NE8       30.05R
CHEHALIS       FAIR      82  61  47 NW6       30.05R
KELSO          CLEAR     81  59  47 NW3       30.06R
VANCOUVER      CLEAR     86  57  37 NW8       29.99S
SCAPPOOSE, OR  CLEAR     86  56  35 NW8       29.99S
PORTLAND, OR   PTCLDY    86  60  41 NW14      29.99S
$$

WAZ021-516-517-290400-
WASHINGTON COAST

CITY           SKY/WX    TMP DP  RH WIND       PRES   REMARKS
FORKS          CLEAR     63  54  72 NW8       30.12F
HOQUIAM        CLEAR     62  56  80 SW12      30.10S
ASTORIA, OR    CLEAR     63  57  81 VRB3      30.10R
$$

WAZ019-023-024-040-518-519-290400-
CASCADE MOUNTAINS AND COLUMBIA GORGE

CITY           SKY/WX    TMP DP  RH WIND       PRES   REMARKS
STAMPEDE PASS  NOT AVBL
TROUTDALE, OR  CLEAR     86  56  35 CALM      29.97S
THE DALLES, OR CLEAR     91  59  33 NW14      29.91R HX  90
$$

WAZ026-027-041>044-520-521-290400-
EAST SLOPES

CITY           SKY/WX    TMP DP  RH WIND       PRES   REMARKS
OMAK           PTCLDY    95  38  13 CALM      29.94S HX  90
WENATCHEE      CLEAR     98  40  13 CALM      29.94R HX  93
ELLENSBURG     CLEAR     87  51  28 NW17G29   30.00R
YAKIMA         CLEAR     93  55  27 W3        29.94R HX  91
$$

WAZ028-034-035-290400-
COLUMBIA BASIN

CITY           SKY/WX    TMP DP  RH WIND       PRES   REMARKS
EPHRATA        CLEAR     96  36  12 S6        29.94S HX  91
MOSES LAKE     CLEAR     98  40  13 SW5       29.94S HX  93
PASCO          CLEAR     97  49  19 CALM      29.88S HX  94
HERMISTON, OR  CLEAR     94  47  20 W3        29.90S HX  90
$$

WAZ036>038-290400-
NORTHEAST WASHINGTON

CITY           SKY/WX    TMP DP  RH WIND       PRES   REMARKS
SPOKANE GEIGER PTCLDY    94  38  14 E5        30.03S
SPOKANE FELTS  CLEAR     88  38  17 N3        30.00S
FAIRCHILD AFB  CLEAR     89  44  21 E3        30.04S
COEURDALENE,ID CLEAR     88  50  27 E6        30.02R
DEER PARK        N/A     89  48  24 CALM      30.02S
$$

WAZ029>033-290400-
SOUTHEAST WASHINGTON

CITY           SKY/WX    TMP DP  RH WIND       PRES   REMARKS
PULLMAN        CLEAR     90  41  18 N3        30.05S
LEWISTON, ID   CLEAR     96  41  15 N5        29.94S HX  92
WALLA WALLA    CLEAR     94  50  22 S7        29.95R HX  91
PENDLETON, OR  CLEAR     93  41  16 NW8       29.96S
$$



USA.gov is the U.S. government's official web portal to all federal, state and local government web resources and services.